CFG2EC EDDF-EDDH

Flight info

Callsign CFG2EC
Flight time N/A
Altitude 31000
Route MARUN6E/07C MARUN Y150 TOLGI DCT SAS P605 NOLGO NOLGO3P
Aircraft A21N/M-SDE2E3FGHIRWXY/LB1

Departure

Time 2026-04-14 14:41
Airport Frankfurt Main Airport (EDDF)

Arrival

Time N/A
Airport Hamburg Helmut Schmidt Airport (EDDH)
Time Latitude Longitude Altitude Speed Heading
2026-04-14 14:14 50.04859 8.58981 371 ft 0 kts 341°
2026-04-14 14:28 50.04852 8.58986 371 ft 2 kts 339°
2026-04-14 14:28 50.04837 8.58994 371 ft 2 kts 339°
2026-04-14 14:28 50.04823 8.59003 371 ft 2 kts 339°
2026-04-14 14:29 50.04809 8.59011 371 ft 2 kts 339°
2026-04-14 14:29 50.04796 8.59019 371 ft 1 kts 339°
2026-04-14 14:29 50.04795 8.59019 371 ft 0 kts 339°
2026-04-14 14:29 50.04796 8.59019 371 ft 0 kts 339°
2026-04-14 14:32 50.04798 8.59018 371 ft 0 kts 334°
2026-04-14 14:33 50.04800 8.59015 371 ft 0 kts 315°
2026-04-14 14:33 50.04795 8.58994 371 ft 6 kts 238°
2026-04-14 14:33 50.04759 8.58894 371 ft 14 kts 246°
2026-04-14 14:33 50.04712 8.58712 371 ft 21 kts 247°
2026-04-14 14:34 50.04594 8.58227 371 ft 23 kts 250°
2026-04-14 14:34 50.04539 8.58000 371 ft 22 kts 250°
2026-04-14 14:34 50.04488 8.57779 371 ft 21 kts 250°
2026-04-14 14:35 50.04437 8.57572 371 ft 20 kts 250°
2026-04-14 14:35 50.04388 8.57368 371 ft 20 kts 250°
2026-04-14 14:35 50.04338 8.57157 371 ft 20 kts 250°
2026-04-14 14:35 50.04287 8.56945 371 ft 21 kts 250°
2026-04-14 14:36 50.04235 8.56728 371 ft 21 kts 250°
2026-04-14 14:36 50.04182 8.56509 371 ft 21 kts 250°
2026-04-14 14:36 50.04129 8.56287 371 ft 22 kts 250°
2026-04-14 14:36 50.04076 8.56064 371 ft 22 kts 251°
2026-04-14 14:37 50.04022 8.55836 371 ft 22 kts 250°
2026-04-14 14:37 50.03967 8.55610 371 ft 22 kts 250°
2026-04-14 14:37 50.03911 8.55378 371 ft 22 kts 250°
2026-04-14 14:37 50.03860 8.55152 371 ft 21 kts 251°
2026-04-14 14:38 50.03807 8.54937 371 ft 20 kts 249°
2026-04-14 14:38 50.03757 8.54731 371 ft 20 kts 250°
2026-04-14 14:38 50.03710 8.54529 371 ft 19 kts 250°
2026-04-14 14:38 50.03659 8.54336 371 ft 18 kts 227°
2026-04-14 14:39 50.03553 8.54334 371 ft 12 kts 161°
2026-04-14 14:39 50.03486 8.54398 371 ft 11 kts 90°
2026-04-14 14:39 50.03492 8.54429 371 ft 0 kts 69°
2026-04-14 14:39 50.03493 8.54435 371 ft 0 kts 69°
2026-04-14 14:40 50.03494 8.54440 371 ft 3 kts 69°
2026-04-14 14:40 50.03579 8.54791 371 ft 71 kts 70°
2026-04-14 14:40 50.03831 8.55844 371 ft 134 kts 69°
2026-04-14 14:40 50.04210 8.57440 465 ft 173 kts 68°
2026-04-14 14:41 50.04590 8.59094 1265 ft 159 kts 69°
2026-04-14 14:41 50.04948 8.60691 1904 ft 159 kts 69°
2026-04-14 14:41 50.05337 8.62308 2420 ft 165 kts 59°
2026-04-14 14:41 50.06187 8.63523 2743 ft 174 kts 20°
2026-04-14 14:42 50.07424 8.63689 3051 ft 186 kts 356°
2026-04-14 14:42 50.08738 8.63526 3408 ft 196 kts 358°
2026-04-14 14:42 50.10159 8.63405 3649 ft 216 kts 359°
2026-04-14 14:42 50.11714 8.63298 3978 ft 232 kts 359°
2026-04-14 14:43 50.13386 8.63187 4335 ft 249 kts 359°
2026-04-14 14:43 50.15144 8.63070 4908 ft 257 kts 359°
2026-04-14 14:43 50.16911 8.62951 5631 ft 258 kts 359°
2026-04-14 14:43 50.18725 8.62829 6360 ft 260 kts 359°
2026-04-14 14:44 50.20526 8.62710 7039 ft 263 kts 358°
2026-04-14 14:44 50.22366 8.62588 7683 ft 268 kts 358°
2026-04-14 14:44 50.24221 8.62464 8316 ft 273 kts 357°
2026-04-14 14:44 50.26143 8.62334 8943 ft 278 kts 357°
2026-04-14 14:45 50.28074 8.62203 9546 ft 282 kts 357°
2026-04-14 14:45 50.30035 8.62069 10125 ft 287 kts 356°
2026-04-14 14:45 50.32054 8.61932 10626 ft 295 kts 356°
2026-04-14 14:45 50.34155 8.61872 10911 ft 311 kts 359°
2026-04-14 14:46 50.36377 8.61869 11183 ft 326 kts 359°
2026-04-14 14:46 50.38669 8.61875 11441 ft 340 kts 359°
2026-04-14 14:46 50.41077 8.61883 11806 ft 350 kts 359°
2026-04-14 14:46 50.43523 8.61900 12391 ft 352 kts
2026-04-14 14:47 50.45976 8.62096 13003 ft 354 kts
2026-04-14 14:47 50.48408 8.62416 13568 ft 357 kts
2026-04-14 14:47 50.50881 8.62768 14132 ft 359 kts
2026-04-14 14:47 50.53381 8.63126 14689 ft 361 kts
2026-04-14 14:48 50.55879 8.63481 15219 ft 363 kts
2026-04-14 14:48 50.58408 8.63838 15712 ft 367 kts
2026-04-14 14:48 50.60953 8.64198 16215 ft 369 kts
2026-04-14 14:48 50.63511 8.64558 16701 ft 372 kts
2026-04-14 14:49 50.66090 8.64923 17162 ft 375 kts
2026-04-14 14:49 50.68702 8.65293 17624 ft 378 kts
2026-04-14 14:49 50.71343 8.65666 18082 ft 380 kts
2026-04-14 14:49 50.73945 8.66035 18501 ft 383 kts
2026-04-14 14:50 50.76600 8.66412 18929 ft 386 kts
2026-04-14 14:50 50.79281 8.66858 19359 ft 389 kts
2026-04-14 14:50 50.81856 8.68308 19714 ft 396 kts 28°
2026-04-14 14:50 50.84010 8.71011 20121 ft 401 kts 46°
2026-04-14 14:51 50.85733 8.74464 20553 ft 404 kts 52°
2026-04-14 14:51 50.87397 8.78018 20934 ft 406 kts 52°
2026-04-14 14:51 50.89076 8.81609 21310 ft 409 kts 52°
2026-04-14 14:51 50.90783 8.85223 21688 ft 411 kts 52°
2026-04-14 14:52 50.92508 8.88848 22066 ft 413 kts 51°
2026-04-14 14:52 50.94233 8.92466 22427 ft 415 kts 51°
2026-04-14 14:52 50.95984 8.96138 22789 ft 416 kts 51°
2026-04-14 14:52 50.97711 8.99766 23123 ft 418 kts 51°
2026-04-14 14:53 50.99477 9.03481 23434 ft 421 kts 51°
2026-04-14 14:53 51.01229 9.07174 23740 ft 424 kts 51°
2026-04-14 14:53 51.03000 9.10912 24022 ft 427 kts 51°
2026-04-14 14:53 51.04790 9.14696 24333 ft 429 kts 51°
2026-04-14 14:54 51.06570 9.18464 24636 ft 431 kts 51°
2026-04-14 14:54 51.08380 9.22300 24929 ft 433 kts 51°
2026-04-14 14:54 51.10400 9.25823 25158 ft 433 kts 38°
2026-04-14 14:54 51.12912 9.28408 25446 ft 431 kts 23°
2026-04-14 14:55 51.15707 9.29909 25732 ft 429 kts 11°
2026-04-14 14:55 51.18633 9.30913 26031 ft 430 kts
2026-04-14 14:55 51.21547 9.31846 26280 ft 432 kts
2026-04-14 14:55 51.24515 9.32819 26532 ft 434 kts
2026-04-14 14:56 51.30444 9.34845 27074 ft 437 kts 10°
2026-04-14 14:56 51.33395 9.35872 27321 ft 438 kts 10°
2026-04-14 14:56 51.36373 9.36912 27557 ft 440 kts 10°
2026-04-14 14:57 51.39379 9.37962 27771 ft 442 kts 10°
2026-04-14 14:57 51.42386 9.39014 27987 ft 444 kts 10°
2026-04-14 14:57 51.45417 9.40074 28220 ft 446 kts 10°
2026-04-14 14:57 51.48431 9.41129 28437 ft 447 kts 10°
2026-04-14 14:58 51.51456 9.42188 28726 ft 447 kts 10°
2026-04-14 14:58 51.54485 9.43252 29074 ft 446 kts 10°
2026-04-14 14:58 51.57509 9.44314 29393 ft 445 kts 10°
2026-04-14 14:58 51.60535 9.45378 29671 ft 445 kts 10°
2026-04-14 14:59 51.63579 9.46449 29900 ft 446 kts 10°
2026-04-14 14:59 51.66617 9.47520 30137 ft 447 kts 10°
2026-04-14 14:59 51.69643 9.48589 30389 ft 448 kts 10°
2026-04-14 14:59 51.72677 9.49662 30627 ft 449 kts 10°
2026-04-14 15:00 51.75716 9.50738 30814 ft 450 kts 10°
2026-04-14 15:00 51.78755 9.51948 30998 ft 452 kts 13°
2026-04-14 15:00 51.81765 9.53428 31151 ft 454 kts 16°
2026-04-14 15:00 51.84720 9.55179 31159 ft 455 kts 19°
2026-04-14 15:01 51.90486 9.59489 31165 ft 459 kts 24°
2026-04-14 15:01 51.96158 9.64206 31167 ft 460 kts 24°
2026-04-14 15:02 52.01830 9.68950 31168 ft 460 kts 25°
2026-04-14 15:02 52.07518 9.73696 31173 ft 461 kts 25°
2026-04-14 15:03 52.13206 9.78450 31179 ft 462 kts 25°
2026-04-14 15:03 52.18901 9.83225 31190 ft 463 kts 25°
2026-04-14 15:04 52.24719 9.87653 31193 ft 462 kts 20°
2026-04-14 15:04 52.30783 9.90992 30835 ft 463 kts 14°
2026-04-14 15:05 52.33887 9.92379 30071 ft 464 kts 13°
2026-04-14 15:05 52.36972 9.93711 29328 ft 464 kts 12°
2026-04-14 15:05 52.40084 9.95054 28560 ft 464 kts 13°
2026-04-14 15:05 52.43226 9.96422 27889 ft 461 kts 13°
2026-04-14 15:06 52.46290 9.97766 27423 ft 454 kts 13°
2026-04-14 15:06 52.49286 9.99089 26932 ft 449 kts 13°
2026-04-14 15:06 52.52270 10.00410 26440 ft 444 kts 13°
2026-04-14 15:06 52.55251 10.01732 25942 ft 439 kts 13°
2026-04-14 15:07 52.58156 10.03024 25451 ft 435 kts 13°
2026-04-14 15:07 52.61054 10.04318 24950 ft 431 kts 13°
2026-04-14 15:07 52.63956 10.05615 24439 ft 427 kts 13°
2026-04-14 15:07 52.66790 10.06883 23944 ft 423 kts 13°
2026-04-14 15:08 52.69633 10.08158 23442 ft 420 kts 13°
2026-04-14 15:08 52.72409 10.09404 22963 ft 416 kts 13°
2026-04-14 15:08 52.75187 10.10603 22496 ft 411 kts 10°
2026-04-14 15:08 52.77972 10.11452 22031 ft 406 kts
2026-04-14 15:09 52.80779 10.11897 21560 ft 402 kts
2026-04-14 15:09 52.83564 10.12047 21087 ft 398 kts 359°
2026-04-14 15:09 52.86285 10.12128 20611 ft 395 kts 358°
2026-04-14 15:09 52.89044 10.12200 20131 ft 392 kts 358°
2026-04-14 15:10 52.91732 10.12276 19662 ft 390 kts 358°
2026-04-14 15:10 52.94439 10.12358 19186 ft 387 kts 358°
2026-04-14 15:10 52.97105 10.12440 18722 ft 384 kts 358°
2026-04-14 15:10 52.99754 10.12525 18260 ft 382 kts 358°
2026-04-14 15:11 53.02402 10.12610 17800 ft 379 kts 358°
2026-04-14 15:11 53.05014 10.12694 17349 ft 376 kts 358°
2026-04-14 15:11 53.07610 10.12779 16899 ft 373 kts 358°
2026-04-14 15:11 53.10206 10.12864 16442 ft 371 kts 358°
2026-04-14 15:12 53.12772 10.12950 15979 ft 368 kts 358°
2026-04-14 15:12 53.15313 10.13033 15517 ft 366 kts 358°
2026-04-14 15:12 53.17825 10.13116 15072 ft 363 kts 358°
2026-04-14 15:12 53.20349 10.13202 14613 ft 361 kts 358°
2026-04-14 15:13 53.22837 10.13303 14165 ft 357 kts 358°
2026-04-14 15:13 53.25285 10.13400 13712 ft 355 kts 358°
2026-04-14 15:13 53.27751 10.13492 13205 ft 353 kts 358°
2026-04-14 15:13 53.30177 10.13575 12695 ft 351 kts 358°
2026-04-14 15:14 53.32623 10.13886 12173 ft 353 kts
2026-04-14 15:14 53.34911 10.15310 11663 ft 355 kts 22°
2026-04-14 15:14 53.37146 10.17151 11138 ft 353 kts 24°
2026-04-14 15:14 53.39304 10.18997 10562 ft 348 kts 24°
2026-04-14 15:15 53.41434 10.20829 9991 ft 339 kts 24°
2026-04-14 15:15 53.43478 10.22592 9414 ft 326 kts 24°
2026-04-14 15:15 53.45448 10.24299 8830 ft 315 kts 24°
2026-04-14 15:15 53.47381 10.25986 8251 ft 310 kts 24°
2026-04-14 15:16 53.49278 10.27645 7680 ft 308 kts 24°
2026-04-14 15:16 53.51141 10.29277 7093 ft 305 kts 24°
2026-04-14 15:16 53.53011 10.30913 6516 ft 301 kts 24°
2026-04-14 15:16 53.54836 10.32516 5988 ft 296 kts 24°
2026-04-14 15:17 53.56654 10.34111 5460 ft 293 kts 24°
2026-04-14 15:17 53.58423 10.35661 4983 ft 282 kts 24°
2026-04-14 15:17 53.60110 10.37144 4608 ft 268 kts 24°
2026-04-14 15:17 53.61736 10.38582 4221 ft 259 kts 24°
2026-04-14 15:18 53.63340 10.39742 3942 ft 247 kts
2026-04-14 15:18 53.64955 10.39582 3935 ft 224 kts 341°
2026-04-14 15:18 53.66377 10.38694 3944 ft 215 kts 335°
2026-04-14 15:18 53.67764 10.37685 3831 ft 216 kts 334°
2026-04-14 15:19 53.69123 10.36671 3469 ft 218 kts 334°
2026-04-14 15:19 53.70477 10.35659 3248 ft 207 kts 334°
2026-04-14 15:19 53.71750 10.34711 3188 ft 192 kts 334°
2026-04-14 15:19 53.72978 10.33801 3205 ft 193 kts 334°
2026-04-14 15:20 53.74074 10.32572 3104 ft 191 kts 310°
2026-04-14 15:20 53.74520 10.30490 3026 ft 195 kts 275°
2026-04-14 15:20 53.74413 10.28212 2966 ft 196 kts 265°
2026-04-14 15:20 53.74216 10.25961 2953 ft 185 kts 264°
2026-04-14 15:21 53.74018 10.23886 2857 ft 176 kts 264°
2026-04-14 15:21 53.73786 10.21873 2545 ft 174 kts 256°
2026-04-14 15:21 53.73278 10.20066 2475 ft 170 kts 244°
2026-04-14 15:21 53.72613 10.18402 2477 ft 171 kts 239°
2026-04-14 15:22 53.71904 10.16793 2474 ft 171 kts 237°
2026-04-14 15:22 53.71166 10.15229 2365 ft 173 kts 235°
2026-04-14 15:22 53.70403 10.13679 2138 ft 171 kts 234°
2026-04-14 15:22 53.69637 10.12144 1911 ft 171 kts 234°
2026-04-14 15:23 53.68904 10.10680 1700 ft 158 kts 235°
2026-04-14 15:23 53.68207 10.09279 1484 ft 155 kts 235°
2026-04-14 15:23 53.67536 10.07931 1260 ft 143 kts 235°
2026-04-14 15:23 53.66902 10.06667 1065 ft 142 kts 235°
2026-04-14 15:24 53.66271 10.05412 886 ft 141 kts 235°
2026-04-14 15:24 53.65647 10.04131 724 ft 140 kts 236°
2026-04-14 15:24 53.65036 10.02866 541 ft 140 kts 234°
2026-04-14 15:24 53.64952 10.02700 519 ft 140 kts 234°